Regional Weather Roundup
Issued by NWS

Home | Current Version | Previous Version | Graphics & Text | Print | Product List | Glossary Off
Versions: 1 2 3 4 5 6 7 8 9 10 11 12 13 14 15 16 17 18 19 20 21 22 23 24 25 26 27 28 29 30 31 32 33 34 35 36 37 38 39 40 41 42 43 44 45 46 47 48 49 50

000
ASUS43 KTOP 140759
RWRKS

WEATHER ROUNDUP FOR KANSAS
NATIONAL WEATHER SERVICE GOODLAND KS
200 AM CST SUN FEB 14 2016

NOTE:  "FAIR" INDICATES FEW OR NO CLOUDS BELOW 12,000 FEET WITH NO
SIGNIFICANT WEATHER AND/OR OBSTRUCTIONS TO VISIBILITY.

KSZ001>006-013>018-027>032-041>047-140900-
NORTHWEST KANSAS

CITY           SKY/WX    TMP DP  RH WIND       PRES   REMARKS
GOODLAND       CLEAR     31  27  85 NW12      30.03F WCI  22
HAYS           CLOUDY    27  10  50 CALM      30.03F
HILL CITY      CLEAR     26  21  81 W6        30.04F
RUSSELL        CLOUDY    21  13  71 E7        30.03F
$$

KSZ061>065-074>080-084>089-140900-
SOUTHWEST KANSAS

CITY           SKY/WX    TMP DP  RH WIND       PRES   REMARKS
DODGE CITY     CLOUDY    28  21  75 N17       30.02R WCI  16
ELKHART          N/A     31  21  66 N15         N/A  WCI  20
GARDEN CITY    CLOUDY    30  24  78 N15       30.00R WCI  19
GREAT BEND     PTCLDY    28  12  50 N13       30.06R WCI  18
LIBERAL        PTCLDY    30  23  74 NW21G29   29.96R WCI  17
$$

KSZ066>073-081>083-090>101-140900-
SOUTHEAST KANSAS

CITY           SKY/WX    TMP DP  RH WIND       PRES   REMARKS
CHANUTE        CLOUDY    33  12  41 E9        30.03F
COFFEYVILLE    CLOUDY    40  18  41 SE15      30.02F WCI  32
HUTCHINSON     MOCLDY    27  11  51 N12       30.00R WCI  17
MEDICINE LODGE   N/A     38  27  64 E6        29.91S
NEWTON         MOCLDY    25   9  50 E8        29.98S
PARSONS        CLOUDY    38  18  44 SE5       30.03F
WICHITA INTL   CLOUDY    35  17  47 E5        29.93F
WICHITA JABRA  CLOUDY    28  13  53 E6        29.95F
WICHITA MCCONL CLOUDY    32  16  51 E7        29.93F
WINFIELD       PTCLDY    38  22  52 SE12      29.93F WCI  30
$$

KSZ007>012-019>026-033>040-048>060-102>105-140900-
NORTHEAST KANSAS

CITY           SKY/WX    TMP DP  RH WIND       PRES   REMARKS
CONCORDIA      CLOUDY    19   8  62 S5        30.07F
EMPORIA        PTCLDY    22   9  57 NE10      30.03F WCI  11
LAWRENCE       PTCLDY    23   6  48 E10       30.10F WCI  12
MANHATTAN      CLOUDY    23   7  50 E8        30.09R
OLATHE IND     CLOUDY    23   6  48 E10       30.10F WCI  12
OLATHE EXE     CLOUDY    23   4  44 E8        30.10F
SALINA         CLOUDY    25   9  50 N10       30.10R WCI  15
TOPEKA BILLARD MOCLDY    25   5  42 E12       30.09F WCI  14
TOPEKA FORBES  CLOUDY    24   7  48 E9        30.07F
$$



USA.gov is the U.S. government's official web portal to all federal, state and local government web resources and services.